Location: Utrecht
(52.0907°N, 5.1214°E)
Time: 19:01:12
(UTC+02:00)

DIWATA 2B (PO-101) - Pass Details

Date: 04 July 2022
Orbit: 583 x 599 km, 98.0° (Epoch: 07 August)

Event Time Altitude Azimuth Distance (km) Brightness Sun altitude
Exits shadow 04:04:40 11° 198° (SSW) 1,870 ? -9.0°
Maximum altitude 04:08:20 34° 263° (W) 991 ? -8.7°
Drops below altitude 10° 04:12:14 10° 330° (NNW) 1,952 ? -8.3°
Sets 04:14:34 0° 339° (NNW) 2,858 ? -8.1°
